CZ-4 DEB, 35319

Orbit data source: Space-Track

CZ-4 DEB, 35319 is space debris in SSO originally from a launch on Thu, 14 Oct 1999 UTC launched from the Taiyaun Space Center, China (TSC). Debris objects in space refer to the collection of defunct objects orbiting the Earth. Examples of debris include non-operational satellites, rocket bodies, and fragments generated from explosions, collisions, or faulty payload assembly.

Loading next visibility...
Identifier
35319, 1999-057RX
Orbit
SSO
Country
Flag of CNCN / PRC
Related business
Manufacturer
Unknown
Mission
Spacecraft
Bus & Motor
Unknown
Mass
Unknown
Launch date (UTC)
1999-10-14 (26 years ago)
Launch vehicle
Unknown
Launch site
Taiyaun Space Center, China (TSC)
Object type
Payload
Rocket body
Debris
Shape & HBR
Unknown shape, 0.1 m
Radar Cross Section
Small (<0.1 m²)

Expand to show TLE details & history
Last TLE update: 1 day ago

TLE from 1 day ago
0 CZ-4 DEB
1 35319U 99057RX  26092.69653487  .00001497  00000-0  68565-3 0  9992
2 35319  98.6613 177.0300 0189951 199.2938 316.6487 14.13733227254333
Epoch: 2026-04-02T16:43Z
TLE epoch observation values (Epoch: 2026-04-02T16:43:00.612Z)
Latitude
25.29701°
Longitude
-80.65736°
Altitude
751.126 km
Speed
7.532 km/s
True Right ascension
00h 04m 32s
True Declination
25° 09' 51"
Sunlit
Object was in daylight at epoch
Visualization orbit readout
Latitude
Unknown
Longitude
Unknown
Altitude
Unknown
Speed
Unknown
Apparent Right ascension
Unknown
Apparent Declination
Unknown
Sunlit
N/A
Visualization observer readout
Local Sidereal Time
09:52:14
Azimuth
Unknown
Elevation
Unknown
Doppler factor
Unknown
Orbital elements
Apogee altitude
980.969 km
Perigee altitude
706.607 km
Semi-major axis
7,221.925 km
Eccentricity
0.019
Inclination
98.6613°
RAAN
177.03°
Arg. of periapsis
199.2938°
True anomaly
315.12842°
Mean anomaly
316.6487°
Eccentric anomaly
315.89119°
Mean motion
3.53642 °/min
Orbital period
101.8 mins
BSTAR
0.00068565
Loading maneuver chart data...
Computing Atmospheric mass density...
Loading historical data...
Loading historical data...
Loading historical data...
Loading historical data...
Loading historical data...
Loading historical data...
Loading historical data...

Documentation

Showing up to 5 results
|